TV
NORAD ID: 28154
Int'l Code: 2004-003A
Perigee: 35,781.8 km
Apogee: 35,804.7 km
Inclination: 0.0 °
Period: 1,436.1 minutes
Semi major axis: 42164 km
Launch date: February 5, 2004
Source: (SES)
Comments: 24 C-band transponders.
Two Line Element Set (TLE):
1 28154U 04003A 13139.42808223 .00000090 00000-0 10000-3 0 7680
2 28154 000.0150 000.4313 0002713 038.9933 216.9447 01.00273607 34036
Source: AFSPC
NASA's NSSDC Master Catalog entry for AMC-10 (GE-10)